Weather History for Marfa, TX

Change the Weather History Date:

Friday, February 15, 2013

  Actual Average Record
Temperature  
Mean Temperature 34 °F -  
Max Temperature 44 °F 59 °F 80 °F (2014)
Min Temperature 24 °F 29 °F 17 °F (1997)
Degree Days  
Heating Degree Days 31    
Moisture  
Dew Point 23 °F    
Average Humidity 61    
Maximum Humidity 86    
Minimum Humidity 35    
Precipitation  
Precipitation 0.00 in - - ()
Sea Level Pressure  
Sea Level Pressure 30.27 in    
Wind  
Wind Speed 11 mph (NNE)    
Max Wind Speed 25 mph    
Max Gust Speed 30 mph    
Visibility 10 miles    
Events      
Averages and records for this station are not official NWS values.
T = Trace of Precipitation, MM = Missing Value Source: NWS Daily Summary

Daily Weather History Graph

Daily Weather History Graph

Search for Another Location

Airport:

Trip Planner

Search our weather history database for the weather conditions in past years. The results will help you decide how hot, cold, wet, or windy it might be!

Date:

Astronomy

Feb. 15, 2013 Rise Set
Actual Time 7:36 AM CST 6:44 PM CST
Civil Twilight 7:11 AM CST 7:09 PM CST
Nautical Twilight 6:43 AM CST 7:37 PM CST
Astronomical Twilight 6:15 AM CST 8:05 PM CST
Moon 10:41 AM CST (2/15) No Moon Set
Length of Visible Light 11h 57m
Length of Day
11h 08m
Waxing Crescent, 30% of the Moon is Illuminated
Feb 15
Waxing Crescent
Feb 17
First Quarter
Feb 25
Full
Mar 4
Last Quarter
Mar 11
New

Hourly Weather History & Observations

Time (CST) Temp. Windchill Dew Point Humidity Pressure Visibility Wind Dir Wind Speed Gust Speed Precip Events Conditions
12:15 AM 33.8 °F 30.8 °F 8.6 °F 35% 30.13 in 10.0 mi NNW 3.5 mph - N/A   Clear
12:35 AM 33.8 °F - 8.6 °F 35% 30.13 in 10.0 mi Calm Calm - N/A   Clear
12:55 AM 30.2 °F 26.7 °F 6.8 °F 37% 30.13 in 10.0 mi North 3.5 mph - N/A   Clear
1:15 AM 26.6 °F - 5.0 °F 40% 30.13 in 10.0 mi Calm Calm - N/A   Clear
1:35 AM 28.4 °F 21.2 °F 8.6 °F 43% 30.13 in 10.0 mi North 6.9 mph - N/A   Clear
1:55 AM 28.4 °F 22.2 °F 8.6 °F 43% 30.15 in 10.0 mi North 5.8 mph - N/A   Clear
2:15 AM 30.2 °F 22.6 °F 10.4 °F 44% 30.15 in 10.0 mi West 8.1 mph - N/A   Clear
2:35 AM 30.2 °F 22.6 °F 10.4 °F 44% 30.15 in 10.0 mi NW 8.1 mph - N/A   Clear
2:55 AM 28.4 °F 20.4 °F 8.6 °F 43% 30.15 in 10.0 mi NNW 8.1 mph - N/A   Clear
3:15 AM 37.4 °F 28.2 °F 15.8 °F 41% 30.15 in 10.0 mi NNE 16.1 mph - N/A   Clear
3:35 AM 39.2 °F 29.6 °F 14.0 °F 36% 30.16 in 10.0 mi North 19.6 mph 24.2 mph N/A   Clear
3:55 AM 37.4 °F 27.2 °F 19.4 °F 48% 30.16 in 10.0 mi NNE 19.6 mph 25.3 mph N/A   Clear
4:15 AM 37.4 °F 26.1 °F 19.4 °F 48% 30.17 in 10.0 mi NNE 24.2 mph 27.6 mph N/A   Clear
4:35 AM 35.6 °F 26.2 °F 21.2 °F 56% 30.19 in 10.0 mi NNE 15.0 mph 23.0 mph N/A   Clear
4:55 AM 35.6 °F 25.2 °F 23.0 °F 60% 30.20 in 10.0 mi NNE 18.4 mph - N/A   Clear
5:15 AM 35.6 °F 24.2 °F 24.8 °F 65% 30.19 in 10.0 mi North 21.9 mph 27.6 mph N/A   Clear
5:35 AM 33.8 °F 21.3 °F 26.6 °F 75% 30.20 in 10.0 mi NNE 24.2 mph 28.8 mph N/A   Clear
5:55 AM 33.8 °F 21.6 °F 26.6 °F 75% 30.21 in 10.0 mi NNE 23.0 mph 26.5 mph N/A   Clear
6:15 AM 33.8 °F 21.9 °F 26.6 °F 75% 30.22 in 10.0 mi NNE 21.9 mph 28.8 mph N/A   Clear
6:35 AM 33.8 °F 22.2 °F 26.6 °F 75% 30.23 in 10.0 mi NNE 20.7 mph - N/A   Mostly Cloudy
6:55 AM 33.8 °F 21.3 °F 26.6 °F 75% 30.24 in 10.0 mi NNE 24.2 mph 29.9 mph N/A   Overcast
7:15 AM 33.8 °F 21.6 °F 26.6 °F 75% 30.25 in 10.0 mi NNE 23.0 mph - N/A   Overcast
7:35 AM 33.8 °F 22.5 °F 26.6 °F 75% 30.26 in 10.0 mi NNE 19.6 mph 29.9 mph N/A   Overcast
7:55 AM 33.8 °F 21.3 °F 26.6 °F 75% 30.27 in 10.0 mi NNE 24.2 mph 28.8 mph N/A   Overcast
8:15 AM 33.8 °F 21.0 °F 26.6 °F 75% 30.27 in 10.0 mi NNE 25.3 mph - N/A   Overcast
8:35 AM 33.8 °F 21.0 °F 26.6 °F 75% 30.28 in 10.0 mi NNE 25.3 mph 29.9 mph N/A   Overcast
8:55 AM 33.8 °F 21.6 °F 26.6 °F 75% 30.29 in 10.0 mi NNE 23.0 mph - N/A   Overcast
9:15 AM 33.8 °F 21.3 °F 26.6 °F 75% 30.29 in 10.0 mi NNE 24.2 mph 29.9 mph N/A   Overcast
9:35 AM 33.8 °F 21.6 °F 26.6 °F 75% 30.30 in 10.0 mi NNE 23.0 mph 27.6 mph N/A   Overcast
9:55 AM 33.8 °F 21.6 °F 26.6 °F 75% 30.32 in 10.0 mi NNE 23.0 mph 26.5 mph N/A   Overcast
10:15 AM 33.8 °F 23.5 °F 26.6 °F 75% 30.33 in 10.0 mi NNE 16.1 mph 23.0 mph N/A   Overcast
10:35 AM 35.6 °F 24.8 °F 26.6 °F 70% 30.33 in 10.0 mi NNE 19.6 mph 24.2 mph N/A   Overcast
10:55 AM 35.6 °F 27.1 °F 26.6 °F 70% 30.33 in 10.0 mi NNE 12.7 mph 18.4 mph N/A   Overcast
11:15 AM 35.6 °F 25.9 °F 26.6 °F 70% 30.33 in 10.0 mi North 16.1 mph - N/A   Overcast
11:55 AM 37.4 °F 29.3 °F 26.6 °F 65% 30.32 in 10.0 mi NE 12.7 mph 20.7 mph N/A   Mostly Cloudy
12:15 PM 39.2 °F 31.6 °F 26.6 °F 61% 30.32 in 10.0 mi NNE 12.7 mph - N/A   Partly Cloudy
12:35 PM 39.2 °F 31.2 °F 26.6 °F 61% 30.31 in 10.0 mi NNE 13.8 mph 21.9 mph N/A   Clear
12:55 PM 39.2 °F 32.0 °F 26.6 °F 61% 30.30 in 10.0 mi NNE 11.5 mph 19.6 mph N/A   Clear
1:15 PM 41.0 °F 35.8 °F 26.6 °F 57% 30.29 in 10.0 mi NE 8.1 mph - N/A   Clear
1:35 PM 41.0 °F 34.3 °F 26.6 °F 57% 30.28 in 10.0 mi NE 11.5 mph 16.1 mph N/A   Clear
1:55 PM 41.0 °F 35.8 °F 26.6 °F 57% 30.28 in 10.0 mi NNE 8.1 mph - N/A   Clear
2:15 PM 42.8 °F 39.3 °F 26.6 °F 53% 30.27 in 10.0 mi North 5.8 mph - N/A   Clear
2:35 PM 42.8 °F - 26.6 °F 53% 30.27 in 10.0 mi Calm Calm - N/A   Clear
2:55 PM 44.6 °F 40.7 °F 26.6 °F 49% 30.27 in 10.0 mi North 6.9 mph - N/A   Clear
3:15 PM 42.8 °F 39.3 °F 26.6 °F 53% 30.27 in 10.0 mi NNW 5.8 mph - N/A   Clear
3:35 PM 42.8 °F 38.6 °F 26.6 °F 53% 30.27 in 10.0 mi North 6.9 mph - N/A   Clear
3:55 PM 42.8 °F 38.6 °F 26.6 °F 53% 30.27 in 10.0 mi North 6.9 mph - N/A   Clear
4:15 PM 44.6 °F 42.2 °F 26.6 °F 49% 30.27 in 10.0 mi North 4.6 mph - N/A   Clear
4:35 PM 44.6 °F 42.2 °F 26.6 °F 49% 30.27 in 10.0 mi NNW 4.6 mph - N/A   Clear
4:55 PM 42.8 °F 40.1 °F 26.6 °F 53% 30.27 in 10.0 mi NE 4.6 mph - N/A   Clear
5:15 PM 44.6 °F 40.7 °F 26.6 °F 49% 30.28 in 10.0 mi North 6.9 mph - N/A   Clear
5:35 PM 42.8 °F 38.0 °F 26.6 °F 53% 30.29 in 10.0 mi North 8.1 mph - N/A   Clear
5:55 PM 42.8 °F 36.6 °F 26.6 °F 53% 30.29 in 10.0 mi North 11.5 mph - N/A   Clear
6:15 PM 42.8 °F 35.8 °F 24.8 °F 49% 30.30 in 10.0 mi North 13.8 mph - N/A   Clear
6:35 PM 39.2 °F 33.0 °F 24.8 °F 56% 30.32 in 10.0 mi NNE 9.2 mph - N/A   Clear
6:55 PM 39.2 °F 35.0 °F 24.8 °F 56% 30.32 in 10.0 mi NNE 5.8 mph - N/A   Clear
7:15 PM 37.4 °F 32.1 °F 24.8 °F 60% 30.32 in 10.0 mi NE 6.9 mph - N/A   Clear
7:35 PM 35.6 °F 29.9 °F 24.8 °F 65% 30.35 in 10.0 mi NNE 6.9 mph - N/A   Clear
7:55 PM 33.8 °F 29.6 °F 23.0 °F 65% 30.35 in 10.0 mi NE 4.6 mph - N/A   Clear
8:15 PM 33.8 °F 28.6 °F 24.8 °F 70% 30.35 in 10.0 mi NE 5.8 mph - N/A   Clear
8:35 PM 33.8 °F 26.4 °F 24.8 °F 70% 30.36 in 10.0 mi NE 9.2 mph - N/A   Clear
8:55 PM 33.8 °F 27.0 °F 24.8 °F 70% 30.36 in 10.0 mi NE 8.1 mph - N/A   Clear
9:15 PM 30.2 °F 23.4 °F 23.0 °F 75% 30.37 in 10.0 mi NE 6.9 mph - N/A   Clear
9:35 PM 30.2 °F 21.9 °F 24.8 °F 80% 30.37 in 10.0 mi NE 9.2 mph - N/A   Clear
9:55 PM 32.0 °F 23.6 °F 24.8 °F 75% 30.38 in 10.0 mi NE 10.4 mph - N/A   Clear
10:15 PM 30.2 °F 22.6 °F 23.0 °F 75% 30.39 in 10.0 mi NE 8.1 mph - N/A   Clear
10:35 PM 28.4 °F 24.6 °F 24.8 °F 86% 30.39 in 10.0 mi NNE 3.5 mph - N/A   Clear
10:55 PM 26.6 °F 20.0 °F 19.4 °F 74% 30.39 in 10.0 mi North 5.8 mph - N/A   Clear
11:15 PM 24.8 °F 16.9 °F 19.4 °F 80% 30.39 in 10.0 mi NNE 6.9 mph - N/A   Clear
11:35 PM 24.8 °F 16.9 °F 19.4 °F 80% 30.39 in 10.0 mi North 6.9 mph - N/A   Clear
11:55 PM 24.8 °F 16.1 °F 19.4 °F 80% 30.39 in 10.0 mi NNW 8.1 mph - N/A   Clear